VK3GY-13 Weather Reports


Display with metric or nautical units.
time (UTC)temp
F
wind
direction
speed
MPH
gust
MPH
rain 1hr
in
rain 24hr
in
rain mn
in
humidity
%
barometer
mb
20260906220005 53 255 5.0 13.0 0.00 0.06 0.06 91 1023.7
20260906215005 52 233 5.0 10.0 0.00 0.06 0.06 91 1023.6
20260906214005 52 254 4.0 12.0 0.00 0.06 0.06 91 1023.4
20260906213005 52 245 5.0 13.0 0.00 0.06 0.06 91 1023.4
20260906212005 52 256 3.0 13.0 0.00 0.06 0.06 92 1023.3
20260906211005 52 257 6.0 10.0 0.01 0.06 0.06 92 1023.1
20260906210005 51 254 4.0 9.0 0.03 0.06 0.06 91 1023.0
20260906203006 51 280 4.0 10.0 0.05 0.06 0.06 91 1022.6
20260906202006 52 271 4.0 12.0 0.05 0.06 0.06 91 1022.6
20260906201005 52 255 5.0 10.0 0.04 0.05 0.05 91 1022.5
20260906200008 51 282 5.0 9.0 0.02 0.03 0.03 91 1022.3
20260906195005 51 277 4.0 9.0 0.02 0.03 0.03 91 1022.3
20260906194004 51 266 3.0 8.0 0.01 0.02 0.02 91 1022.2
20260906193006 51 291 3.0 6.0 0.00 0.01 0.01 91 1022.2
20260906192006 50 270 2.0 3.0 0.00 0.01 0.01 90 1022.0
20260906190005 50 267 0.0 2.0 0.00 0.01 0.01 90 1021.9
20260906185006 50 267 1.0 3.0 0.00 0.01 0.01 90 1021.8
20260906184005 51 267 3.0 6.0 0.01 0.01 0.01 89 1021.8
20260906181005 52 267 3.0 8.0 0.01 0.01 0.01 88 1021.6
20260906180005 52 262 5.0 12.0 0.01 0.01 0.01 88 1021.5
20260906175005 53 249 9.0 15.0 0.01 0.01 0.01 86 1021.7
20260906174005 53 240 5.0 10.0 0.00 0.02 0.00 86 1021.6
20260906173005 54 256 6.0 13.0 0.00 0.02 0.00 86 1021.4
20260906171005 54 273 4.0 9.0 0.00 0.02 0.00 86 1021.5
20260906170005 54 271 4.0 8.0 0.00 0.02 0.00 85 1021.5
20260906165005 54 297 5.0 8.0 0.00 0.02 0.00 85 1021.5
20260906164007 54 272 4.0 7.0 0.00 0.02 0.00 85 1021.5
20260906163006 54 271 3.0 6.0 0.00 0.02 0.00 85 1021.6
20260906162005 54 267 2.0 6.0 0.00 0.02 0.00 85 1021.6
20260906161005 54 266 3.0 7.0 0.00 0.02 0.00 85 1021.7
20260906160005 54 260 3.0 7.0 0.00 0.02 0.00 85 1021.7
20260906155006 54 280 2.0 9.0 0.00 0.02 0.00 85 1021.6
20260906154005 54 244 5.0 12.0 0.00 0.03 0.00 86 1021.8
20260906153005 54 278 5.0 12.0 0.00 0.04 0.00 88 1021.8
20260906152005 54 246 5.0 12.0 0.00 0.04 0.00 89 1021.9
20260906151005 54 290 2.0 5.0 0.00 0.04 0.00 89 1021.8
20260906150005 54 298 1.0 3.0 0.00 0.04 0.00 90 1021.9
20260906145005 54 298 2.0 9.0 0.00 0.04 0.00 90 1022.0
20260906142006 54 191 2.0 5.0 0.00 0.04 0.00 90 1021.9
20260906140005 54 188 0.0 2.0 0.00 0.05 0.00 90 1021.8
20260906135005 54 188 0.0 1.0 0.00 0.05 0.05 90 1021.9
20260906134005 54 188 0.0 2.0 0.00 0.05 0.05 90 1021.9
20260906132006 54 188 0.0 1.0 0.00 0.08 0.05 90 1022.0
20260906131006 54 188 0.0 0.0 0.00 0.08 0.05 90 1022.1
20260906130005 54 188 0.0 0.0 0.00 0.08 0.05 90 1022.2
20260906125005 54 188 0.0 1.0 0.00 0.08 0.05 90 1022.3
20260906124005 55 188 0.0 2.0 0.00 0.08 0.05 90 1022.3
20260906123007 55 188 1.0 2.0 0.00 0.09 0.05 90 1022.4
20260906122008 55 188 1.0 2.0 0.00 0.09 0.05 89 1022.5
20260906121005 55 188 2.0 3.0 0.00 0.09 0.05 89 1022.4
20260906120005 55 188 2.0 5.0 0.00 0.09 0.05 89 1022.4
20260906115005 55 187 2.0 5.0 0.00 0.09 0.05 89 1022.5
20260906114005 55 187 1.0 3.0 0.00 0.09 0.05 89 1022.5
20260906113004 55 187 0.0 2.0 0.00 0.09 0.05 89 1022.4
20260906112007 55 187 1.0 3.0 0.00 0.09 0.05 89 1022.4
20260906105005 56 187 2.0 5.0 0.00 0.09 0.05 88 1022.0
20260906104005 56 186 2.0 5.0 0.00 0.09 0.05 88 1021.9
20260906103005 56 186 1.0 3.0 0.00 0.09 0.05 88 1022.0
20260906102007 56 186 2.0 3.0 0.00 0.09 0.05 87 1022.0
20260906101005 56 186 2.0 5.0 0.00 0.09 0.05 87 1022.0
20260906100005 56 186 1.0 3.0 0.00 0.09 0.05 87 1021.9
20260906095004 56 186 2.0 3.0 0.00 0.09 0.05 86 1021.8
20260906094007 56 186 2.0 5.0 0.00 0.09 0.05 86 1021.7
20260906093006 57 188 2.0 5.0 0.00 0.09 0.05 85 1021.6
20260906092005 57 188 3.0 5.0 0.00 0.09 0.05 84 1021.5
20260906091004 57 189 4.0 6.0 0.00 0.09 0.05 84 1021.5
20260906090004 57 213 1.0 3.0 0.00 0.09 0.05 82 1021.4
20260906085006 57 213 0.0 0.0 0.00 0.09 0.05 82 1021.2
20260906084005 57 213 0.0 0.0 0.00 0.09 0.05 81 1021.1
20260906083005 57 213 0.0 0.0 0.00 0.09 0.05 80 1021.1
20260906082005 58 213 0.0 2.0 0.00 0.09 0.05 79 1020.9
20260906080004 59 213 1.0 3.0 0.00 0.09 0.05 78 1020.8
20260906075005 59 213 1.0 3.0 0.00 0.09 0.05 77 1020.7
20260906074005 59 213 2.0 7.0 0.00 0.09 0.05 76 1020.7
20260906073005 60 248 3.0 7.0 0.00 0.09 0.05 74 1020.5
20260906072005 60 252 4.0 7.0 0.00 0.09 0.05 75 1020.5
20260906071006 60 243 2.0 5.0 0.00 0.09 0.05 74 1020.5
20260906070005 60 244 3.0 8.0 0.00 0.10 0.05 74 1020.3
20260906065005 60 254 3.0 9.0 0.00 0.10 0.05 73 1020.4
20260906064005 60 258 4.0 12.0 0.00 0.10 0.05 74 1020.3
20260906063005 60 252 6.0 12.0 0.00 0.10 0.05 74 1020.3
20260906062005 60 247 6.0 12.0 0.00 0.10 0.05 75 1020.4
20260906061005 60 254 3.0 10.0 0.00 0.10 0.05 76 1020.3
20260906060004 60 243 5.0 12.0 0.00 0.10 0.05 76 1020.2
20260906055006 61 218 5.0 10.0 0.00 0.10 0.05 75 1020.1
20260906054005 61 249 5.0 10.0 0.00 0.10 0.05 74 1020.0
20260906053006 62 249 5.0 10.0 0.00 0.10 0.05 74 1019.9
20260906051006 62 234 5.0 10.0 0.00 0.10 0.05 71 1019.9
20260906050004 63 256 5.0 9.0 0.00 0.10 0.05 71 1019.8
20260906044005 62 273 2.0 8.0 0.00 0.10 0.05 71 1019.4
20260906043005 63 269 3.0 7.0 0.00 0.10 0.05 72 1019.5
20260906042005 63 271 3.0 7.0 0.00 0.10 0.05 71 1019.4
20260906041005 64 279 2.0 8.0 0.00 0.10 0.05 74 1019.5
20260906035004 62 265 5.0 8.0 0.00 0.10 0.05 78 1019.4
20260906034006 62 246 6.0 10.0 0.00 0.10 0.05 77 1019.6
20260906033005 61 253 3.0 7.0 0.00 0.10 0.05 78 1019.6
20260906032005 61 253 2.0 9.0 0.00 0.10 0.05 78 1019.7
20260906030005 63 242 3.0 9.0 0.00 0.10 0.05 77 1019.6
20260906025005 63 201 4.0 10.0 0.00 0.10 0.05 78 1019.7
20260906024004 62 202 2.0 6.0 0.00 0.10 0.05 81 1019.8
20260906022005 61 203 3.0 8.0 0.00 0.14 0.05 81 1020.0
20260906021005 60 243 4.0 8.0 0.00 0.14 0.05 82 1020.1
20260906020005 60 264 4.0 8.0 0.00 0.14 0.05 83 1020.1
20260906015005 59 261 5.0 8.0 0.00 0.15 0.05 85 1020.1
20260906014004 59 245 4.0 8.0 0.00 0.15 0.05 86 1020.1
20260906013005 59 261 2.0 7.0 0.00 0.15 0.05 87 1020.1
20260906012005 58 280 4.0 7.0 0.00 0.15 0.05 88 1020.2
20260906011005 58 281 3.0 7.0 0.00 0.15 0.05 88 1020.1
20260906005005 58 257 2.0 7.0 0.00 0.15 0.05 88 1020.2
20260906003004 58 281 3.0 9.0 0.00 0.15 0.05 88 1020.0
20260906002005 58 269 5.0 8.0 0.00 0.15 0.05 89 1019.9
20260906001008 57 273 4.0 8.0 0.00 0.15 0.05 89 1019.8
20260906000005 57 279 2.0 6.0 0.00 0.15 0.05 89 1019.8
20260905235006 57 276 2.0 3.0 0.00 0.15 0.05 89 1019.7
20260905233005 57 253 3.0 8.0 0.00 0.15 0.05 90 1019.5
20260905232007 58 253 6.0 12.0 0.00 0.15 0.05 90 1019.4
20260905231006 57 278 4.0 8.0 0.00 0.15 0.05 91 1019.2
20260905230005 56 271 3.0 8.0 0.00 0.15 0.05 91 1019.1
20260905225005 56 288 3.0 7.0 0.00 0.15 0.05 91 1018.9
20260905223005 56 270 5.0 9.0 0.00 0.15 0.05 91 1018.5
20260905222005 55 261 5.0 8.0 0.00 0.15 0.05 91 1018.4
20260905221006 55 249 3.0 7.0 0.00 0.15 0.05 91 1018.3